sat.trackr.live / text

‹ back to catalog

NUSAT-38 (MARIA AGNESI)

NORAD 56202 · 2023-054AA

PAYLOAD ACTIVE UNKNOWN

§ Identity

Operator
Country
ARGN
Launch date
2023-04-15
Launch site
AFWTR
Launch vehicle
Mass (kg)
RCS (m²)

External: N2YO · Heavens-Above · Gunter

§ Orbital elements

Epoch: 2026-05-25T05:22:23.733120Z

Period
93.02 min
Inclination
97.3077°
Eccentricity
0.0014360
Mean motion
15.48027715 rev/d
Perigee alt
412.7 km
Apogee alt
432.3 km
Semi-major
6,800.6 km
B*
5.6761e-4
RAAN
55.3301°
Arg perigee
134.9896°
Mean anomaly
225.2521°
Rev number
17,495

§ Raw data

NUSAT-38 (MARIA AGNESI)1 56202U 23054AA  26145.22388580  .00029787  00000+0  56761-3 0  99932 56202  97.3077  55.3301 0014360 134.9896 225.2521 15.48027715174956

JSON: /api/v1/satellites/56202 · /tle

For live sub-satellite position, see the globe view (requires WebGL).

§ Visibility from observer

Set your observer location to see the next 7 days of passes ≥ 10°. The values pass through the URL so the page stays shareable.

No JS? Fill the form by hand. The geolocation button needs JavaScript.